Regional Weather Roundup
Issued by NWS Sioux Falls, SD

Home | Current Version | Previous Version | Graphics & Text | Print | Product List | Glossary On
Versions: 1 2 3 4 5 6 7 8 9 10 11 12 13 14 15 16 17 18 19 20 21 22 23 24 25 26 27 28 29 30 31 32 33 34 35 36 37 38 39 40 41 42 43 44 45 46 47 48 49 50
376
ASUS43 KFSD 131402
RWRFSD

WEATHER ROUNDUP FOR SE SOUTH DAKOTA/SW MINNESOTA/NW IOWA
NATIONAL WEATHER SERVICE SIOUX FALLS SD
800 AM CST WED DEC 13 2017

NOTE: "FAIR" INDICATES FEW OR NO CLOUDS BELOW 12,000 FEET WITH NO
SIGNIFICANT WEATHER AND OR OBSTRUCTIONS TO VISIBILITY.


SDZ038>040-050-052>070-131500-
SOUTHEAST SOUTH DAKOTA

CITY           SKY/WX    TMP DP  RH WIND       PRES   REMARKS
BROOKINGS      CLOUDY    37  31  78 NW28G40   29.64R
CHAMBERLAIN    CLEAR     42  29  60 NW23G30   29.83R
HURON          PTCLDY    38  30  73 NW20G29   29.75R
MADISON        CLOUDY    37  37 100 N35G44    29.67R
MITCHELL       CLEAR     42  30  62 NW28G37   29.75R
SIOUX FALLS    CLOUDY    41  34  76 NW29G40   29.64R
WINNER         FAIR      42  25  50 NW26G33   29.86R
YANKTON        PTCLDY    44  29  55 NW25G32   29.72R
$$

MNZ071-072-080-081-089-090-097-098-131500-
SOUTHWEST MINNESOTA

CITY           SKY/WX    TMP DP  RH WIND       PRES   REMARKS
FAIRMONT       RAIN      34  32  92 NW32G40   29.45R WCI  20
JACKSON        LGT SNOW  34  32  93 MISG      29.50R
LUVERNE        CLOUDY    36  32  87 NW23G32   29.60R
MARSHALL       CLOUDY    36  32  85 NW36G44   29.55R
MONTEVIDEO     CLOUDY    32  30  93 N31G47    29.58R WCI  17
PIPESTONE      CLOUDY    36  32  87 N30G38    29.59R
REDWOOD FALLS  CLOUDY    35  29  78 NW20G41   29.51R WCI  24
WINDOM         FLURRIES  34  23  64 NW29G43   29.50R WCI  20
WORTHINGTON    CLOUDY    36  32  85 NW31G38   29.55R
$$

IAZ001>003-012>014-020>022-031-032-NEZ013-014-SDZ071-131500-
NORTHWEST IOWA

CITY           SKY/WX    TMP DP  RH WIND       PRES   REMARKS
CHEROKEE       DRIZZLE   41  35  79 NW23G38   29.60R
DENISON        CLOUDY    46  30  53 NW37G51   29.60R
ESTHERVILLE    FLURRIES  35  32  88 NW35G48   29.49R WCI  21
LE MARS        CLOUDY    43  36  75 NW25G38   29.63R
ORANGE CITY    CLOUDY    39  37  93 NW17G35   29.61R
SHELDON        LGT RAIN  37  36  93 NW28G36   29.57R
SIOUX CITY     LGT RAIN  46  33  60 NW36G45   29.63R
SPENCER        LGT RAIN  38  35  89 NW26G36   29.53R
STORM LAKE     MIX PCPN  41  34  75 NW26G43   29.55R
$$

ABBREVIATIONS USED IN REMARKS
   TC - TEMPERATURE IN CELSIUS
  WCI - WIND CHILL INDEX
   HX - HEAT INDEX
  VSB - VISIBILITY





USA.gov is the U.S. government's official web portal to all federal, state and local government web resources and services.